[[{"header":{"parameterUnit":"m.s-1","parameterCategory":2,"la1":30.2991,"la2":30.254,"lo1":-89.0895,"lo2":-89.0444,"dy":0.0017,"dx":0.0017,"nx":28,"ny":28,"refTime":"2025-12-04T03:00:00:Z","depth":"0","parameterNumber":2,"parameterNumberName":"U-component_of_CURRENTS"},"data":[0,0,0,0,0,0,0,0,0,0,0,0,0,0,0,0,0,0,0,0,0,0,0,0,0,0,0,0,0,0,0,0,0,0,0,0,0,0,0,0,0,0,0,0,0,0,0,0,0,0,0,0,0,0,0,0,0,0,0.3598,0.3599,0,0.3627,0.3627,0.3627,0.3616,0.3616,0.3616,0.3615,0.3614,0.3614,0.3615,0,0,0,0,0,0,0,0,0,0,0,0,0,0.3552,0.3552,0.3598,0.3599,0.36,0.3627,0.3627,0.3627,0.3616,0.3616,0.3615,0.3615,0.3614,0.3614,0.3615,0,0,0,0,0,0,0,0,0,0,0,0,0,0.3572,0.3552,0.3598,0.3601,0.3601,0.3627,0.3627,0.3627,0.3616,0.3616,0.3615,0.3615,0.3614,0.3614,0.3615,0.3626,0,0,0.3616,0.3616,0,0,0,0,0,0,0,0,0.357,0.3573,0.3599,0.36,0.3601,0.3621,0.3611,0.3627,0.3616,0.3606,0.3615,0.3615,0.3617,0.3617,0.3618,0.3626,0.3626,0.3616,0.3616,0.3616,0.3616,0,0,0,0,0,0,0,0.3569,0.3572,0.3606,0.36,0.3602,0.3607,0.3608,0.3613,0.361,0.3607,0.3607,0.3617,0.3616,0.3618,0.3618,0.3626,0.3616,0.3616,0.3616,0.3617,0.3708,0.371,0,0,0,0,0,0,0.3573,0.357,0.3605,0.3607,0.3589,0.3608,0.361,0.3612,0.3611,0.3611,0.3618,0.3617,0.3617,0.3617,0.3618,0.3684,0.3616,0.3617,0.3617,0.3706,0.3709,0.3711,0,0,0,0,0,0,0.3572,0.3576,0.3604,0.3593,0.3597,0.361,0.3612,0.3613,0.3618,0.362,0.3619,0.3623,0.3617,0.3617,0.3643,0.3682,0.3617,0.3617,0.3703,0.3707,0.371,0.3783,0,0,0,0,0,0,0.357,0.3575,0.3573,0.3593,0.3598,0.3628,0.3613,0.3614,0.3627,0.3626,0.3624,0.3623,0.3616,0.3642,0.3643,0.3681,0.3617,0.3701,0.3705,0.3709,0.3778,0.3788,0.3798,0,0,0,0,0,0.3568,0.3563,0.3573,0.3577,0.3597,0.363,0.3633,0.3637,0.3628,0.3638,0.3645,0.3624,0.3669,0.3644,0.3645,0.3684,0.3699,0.3704,0.3708,0.3773,0.3786,0.3797,0,0,0,0,0,0,0.3521,0.3563,0.3574,0.3575,0.3609,0.363,0.3635,0.3643,0.3654,0.3652,0.3645,0.3646,0.3686,0.3676,0.3649,0.3725,0.3684,0.3689,0.3733,0.3745,0.3755,0.3754,0.3618,0,0,0,0,0,0.3518,0.3534,0.3575,0.3576,0.3596,0.3619,0.363,0.3642,0.3659,0.3663,0.3666,0.3678,0.3707,0.3717,0.3732,0.3767,0.3776,0.3796,0.3806,0.3814,0.3817,0.3881,0.3897,0.3727,0.3727,0.3727,0,0,0.3493,0.3523,0.3526,0.357,0.3591,0.363,0.3623,0.365,0.3683,0.3662,0.3695,0.3708,0.3724,0.3771,0.3788,0.3767,0.3869,0.3821,0.3827,0.3825,0.3888,0.3904,0.3919,0.3731,0.373,0.373,0,0,0.3471,0.3489,0.3507,0.3548,0.3602,0.363,0.3643,0.368,0.3698,0.3738,0.3743,0.3782,0.3805,0.3838,0.3855,0.3928,0.3919,0.3936,0.3984,0.4047,0.4062,0.4074,0.4111,0.4126,0.3941,0.3941,0.3941,0,0.3439,0.3476,0.3514,0.3557,0.3592,0.3635,0.3672,0.3705,0.3744,0.3773,0.3756,0.3836,0.3841,0.3925,0.3952,0.3951,0.3975,0.3935,0.406,0.4073,0.4084,0.4119,0.4135,0.3945,0.3945,0.3944,0.3944,0,0.3452,0.3484,0.35,0.3577,0.3618,0.3657,0.3725,0.3765,0.3792,0.3828,0.3905,0.3928,0.3975,0.3995,0.3992,0.409,0.4078,0.4065,0.4027,0.4106,0.4137,0.4153,0.3951,0.395,0.3948,0.3947,0,0,0.3364,0.3487,0.3488,0.3539,0.3637,0.3672,0.3748,0.3832,0.3885,0.3933,0.4003,0.4064,0.4079,0.4101,0.4118,0.4172,0.4273,0.4155,0.4156,0.4186,0.4405,0.4377,0.439,0.4287,0.429,0.4292,0.4395,0,0.3362,0.344,0.3507,0.3582,0.3633,0.3718,0.3786,0.3869,0.3933,0.4011,0.4073,0.4138,0.4123,0.4154,0.4212,0.4263,0.4316,0.4245,0.4329,0.4331,0.4292,0.4409,0.4336,0.442,0.4409,0.4412,0.4414,0,0.335,0.3414,0.3484,0.3612,0.3641,0.3693,0.3819,0.3887,0.4017,0.4072,0.4159,0.4203,0.4308,0.427,0.4404,0.4363,0.4387,0.4416,0.442,0.4377,0.4332,0.434,0.4448,0.4366,0.4437,0.4435,0.4433,0,0.3276,0.3394,0.3451,0.3494,0.3641,0.3689,0.3764,0.3892,0.3965,0.4109,0.4179,0.4298,0.4363,0.4434,0.4491,0.4461,0.4623,0.4585,0.4582,0.4579,0.4523,0.451,0.4555,0.4672,0.4672,0.4671,0.4671,0,0.325,0.3294,0.3421,0.3455,0.3524,0.3643,0.3725,0.3826,0.3975,0.4057,0.4194,0.4283,0.4409,0.4508,0.454,0.4622,0.4666,0.4618,0.4621,0.4546,0.4535,0.4463,0.4409,0.4675,0.4674,0.4674,0.4673,0,0.3156,0.3243,0.3311,0.3451,0.3489,0.353,0.3683,0.3752,0.3913,0.4029,0.4082,0.43,0.4445,0.4555,0.4681,0.4685,0.4651,0.4761,0.4654,0.4644,0.4546,0.4499,0.436,0.4214,0.4788,0.4788,0.4788,0,0.3117,0.3144,0.3263,0.3293,0.3351,0.3434,0.3496,0.368,0.3766,0.4018,0.4074,0.4283,0.4415,0.4631,0.4706,0.4803,0.4645,0.4746,0.4672,0.456,0.4511,0.4304,0.4174,0.4629,0.4628,0.4627,0.4626,0,0.3038,0.3074,0.3131,0.3184,0.3242,0.3304,0.3413,0.3478,0.369,0.3826,0.4014,0.4155,0.4425,0.4538,0.4693,0.473,0.4555,0.4727,0.4656,0.4438,0.4172,0.4026,0.4521,0.4618,0.4619,0.4619,0.462,0.462,0.2957,0.2963,0.3028,0.3066,0.3125,0.3161,0.3168,0.3315,0.3435,0.361,0.3838,0.402,0.4334,0.4583,0.4583,0.4596,0.449,0.4515,0.4483,0.4293,0.4098,0.4562,0.463,0.4631,0.4632,0.4632,0.4633,0,0.2841,0.2871,0.2911,0.2951,0.2953,0.3023,0.3101,0.3099,0.3175,0.3418,0.3585,0.392,0.4128,0.4337,0.4522,0.4403,0.4174,0.4287,0.4002,0.3895,0.4387,0.4329,0.428,0.428,0.428,0.428,0.428,0.428,0.2786,0.2774,0.2798,0.2763,0.2783,0.2735,0.2734,0.2769,0.2908,0.3088,0.3286,0.352,0.4009,0.4382,0.4391,0.4277,0.3918,0.3783,0.3674,0.409,0.4108,0.4124,0.4058,0.3954,0.3953,0.3052,0.3045,0.3041]},{"header":{"parameterUnit":"m.s-1","parameterCategory":2,"la1":30.2991,"la2":30.254,"lo1":-89.0895,"lo2":-89.0444,"dy":0.0017,"dx":0.0017,"nx":28,"ny":28,"refTime":"2025-12-04T03:00:00:Z","depth":"0","parameterNumber":3,"parameterNumberName":"V-component_of_CURRENTS"},"data":[0,0,0,0,0,0,0,0,0,0,0,0,0,0,0,0,0,0,0,0,0,0,0,0,0,0,0,0,0,0,0,0,0,0,0,0,0,0,0,0,0,0,0,0,0,0,0,0,0,0,0,0,0,0,0,0,0,0,-0.0312,-0.0312,0,-0.0378,-0.0379,-0.038,-0.0435,-0.0435,-0.0435,-0.0436,-0.057,-0.0573,-0.0576,0,0,0,0,0,0,0,0,0,0,0,0,0,-0.0311,-0.031,-0.0312,-0.0312,-0.0313,-0.0378,-0.0379,-0.038,-0.0435,-0.0435,-0.0435,-0.0436,-0.0568,-0.0572,-0.0576,0,0,0,0,0,0,0,0,0,0,0,0,0,-0.034,-0.031,-0.0312,-0.0346,-0.035,-0.0377,-0.0379,-0.038,-0.0435,-0.0435,-0.0436,-0.0436,-0.0567,-0.0572,-0.0577,-0.0596,0,0,-0.0592,-0.0594,0,0,0,0,0,0,0,0,-0.0338,-0.034,-0.0341,-0.0344,-0.0348,-0.0396,-0.0427,-0.0455,-0.0434,-0.0405,-0.0436,-0.0436,-0.0516,-0.0525,-0.0539,-0.0603,-0.0608,-0.0592,-0.0595,-0.0597,-0.0598,0,0,0,0,0,0,0,-0.0336,-0.0338,-0.0341,-0.0341,-0.0345,-0.0385,-0.0389,-0.0433,-0.046,-0.0408,-0.0411,-0.0414,-0.0519,-0.0534,-0.0543,-0.061,-0.0592,-0.0596,-0.0599,-0.0601,-0.0714,-0.0714,0,0,0,0,0,0,-0.0317,-0.0335,-0.0339,-0.0342,-0.0341,-0.0384,-0.0389,-0.0382,-0.0458,-0.0469,-0.0414,-0.0416,-0.0525,-0.0537,-0.0548,-0.0575,-0.0597,-0.0602,-0.0604,-0.0714,-0.0714,-0.0714,0,0,0,0,0,0,-0.0317,-0.0317,-0.0336,-0.0339,-0.0344,-0.0382,-0.0375,-0.0383,-0.0397,-0.0461,-0.0474,-0.0418,-0.0526,-0.0541,-0.0583,-0.058,-0.0604,-0.0608,-0.0714,-0.0714,-0.0714,-0.063,0,0,0,0,0,0,-0.0316,-0.0316,-0.0306,-0.0337,-0.0343,-0.0341,-0.0375,-0.0384,-0.0397,-0.0401,-0.047,-0.0483,-0.0528,-0.0575,-0.0587,-0.0588,-0.0612,-0.0714,-0.0714,-0.0714,-0.0632,-0.0627,-0.0622,0,0,0,0,0,-0.0316,-0.0289,-0.0305,-0.0306,-0.0328,-0.034,-0.0347,-0.0379,-0.0396,-0.0395,-0.0444,-0.0481,-0.0585,-0.0578,-0.0593,-0.0595,-0.0714,-0.0714,-0.0714,-0.0635,-0.0628,-0.0622,0,0,0,0,0,0,-0.0268,-0.0293,-0.0311,-0.0289,-0.0312,-0.0348,-0.0345,-0.0371,-0.0408,-0.0414,-0.048,-0.0496,-0.0534,-0.0576,-0.0567,-0.0629,-0.0656,-0.0659,-0.0591,-0.0585,-0.058,-0.0543,-0.0616,0,0,0,0,0,-0.0256,-0.0251,-0.028,-0.0262,-0.027,-0.031,-0.0319,-0.034,-0.0376,-0.0392,-0.0441,-0.0496,-0.0547,-0.0572,-0.0622,-0.0651,-0.0676,-0.0664,-0.0659,-0.0654,-0.0634,-0.0683,-0.0679,-0.0715,-0.0715,-0.0715,0,0,-0.0231,-0.0244,-0.024,-0.0254,-0.0274,-0.0272,-0.0317,-0.032,-0.0323,-0.0402,-0.0421,-0.048,-0.0551,-0.0587,-0.0608,-0.062,-0.0653,-0.0654,-0.065,-0.0632,-0.0682,-0.0679,-0.0676,-0.0715,-0.0715,-0.0715,0,0,-0.0175,-0.0191,-0.0171,-0.0187,-0.021,-0.0237,-0.0234,-0.027,-0.0291,-0.0318,-0.038,-0.0429,-0.0501,-0.055,-0.0586,-0.0581,-0.0626,-0.0606,-0.0548,-0.0595,-0.0592,-0.059,-0.0593,-0.0592,-0.0602,-0.0601,-0.0601,0,-0.0143,-0.0124,-0.0165,-0.0153,-0.0154,-0.0215,-0.0191,-0.0223,-0.0269,-0.028,-0.0311,-0.0415,-0.0481,-0.0525,-0.0529,-0.0568,-0.0588,-0.0563,-0.0586,-0.0585,-0.0584,-0.0589,-0.0588,-0.0597,-0.0598,-0.0598,-0.0599,0,-0.008,-0.0068,-0.0054,-0.0064,-0.0072,-0.0061,-0.0106,-0.0121,-0.0159,-0.0195,-0.0243,-0.0332,-0.0388,-0.0429,-0.0481,-0.051,-0.0523,-0.0573,-0.0594,-0.0575,-0.0581,-0.0582,-0.0592,-0.0593,-0.0594,-0.0595,0,0,0.0007,-0.0006,-0.0001,0.0011,-0.0022,-0.0014,-0.0024,-0.0043,-0.0034,-0.0109,-0.0105,-0.0217,-0.0266,-0.0309,-0.0387,-0.0437,-0.0454,-0.0495,-0.0499,-0.0482,-0.0524,-0.0529,-0.0531,-0.0513,-0.0514,-0.0514,-0.0522,0,0.0071,0.0117,0.0088,0.0133,0.0155,0.0101,0.0105,0.0075,0.0034,0.0019,-0.0087,-0.0121,-0.0222,-0.0245,-0.0312,-0.0416,-0.0457,-0.0444,-0.0559,-0.0561,-0.0556,-0.0533,-0.0509,-0.0515,-0.0524,-0.0524,-0.0524,0,0.0145,0.0165,0.0221,0.0238,0.0244,0.0258,0.0264,0.0257,0.0204,0.0169,0.0106,0.0031,-0.0049,-0.0142,-0.0291,-0.0278,-0.0386,-0.0474,-0.0477,-0.0509,-0.0568,-0.0544,-0.0518,-0.0743,-0.0527,-0.0526,-0.0526,0,0.0231,0.0262,0.0312,0.0317,0.0321,0.0341,0.034,0.0308,0.0329,0.0267,0.0281,0.0157,0.0125,-0.0039,-0.0216,-0.0254,-0.037,-0.0448,-0.0548,-0.0548,-0.0562,-0.0563,-0.0754,-0.0551,-0.0551,-0.0551,-0.0551,0,0.0312,0.0356,0.0359,0.0389,0.0461,0.0429,0.0495,0.0468,0.0466,0.0511,0.0368,0.0393,0.0146,0.0049,-0.0148,-0.0325,-0.0316,-0.0516,-0.0553,-0.053,-0.0528,-0.0755,-0.0902,-0.0551,-0.0551,-0.0551,-0.0551,0,0.0396,0.0395,0.046,0.0486,0.0504,0.0553,0.0607,0.0656,0.0627,0.0686,0.068,0.059,0.0463,0.0228,-0.0009,-0.0203,-0.0527,-0.0471,-0.0402,-0.0432,-0.0752,-0.0895,-0.1115,-0.1214,-0.0577,-0.0578,-0.0578,0,0.044,0.0481,0.054,0.0592,0.0608,0.0675,0.0731,0.0731,0.0798,0.0821,0.0876,0.0786,0.0756,0.0426,0.0063,-0.0253,-0.0505,-0.0459,-0.055,-0.0749,-0.0936,-0.1043,-0.1119,-0.0524,-0.0524,-0.0524,-0.0523,0,0.0526,0.0545,0.0598,0.0702,0.0775,0.0862,0.0947,0.1034,0.105,0.1122,0.1209,0.1197,0.0883,0.0603,0.0153,-0.0111,-0.0626,-0.0465,-0.0706,-0.0931,-0.1026,-0.1143,-0.0516,-0.0521,-0.0522,-0.0522,-0.0522,-0.0522,0.0592,0.0645,0.0717,0.0821,0.091,0.1039,0.1138,0.1255,0.1398,0.1527,0.1492,0.1536,0.1078,0.0481,0.0095,-0.0592,-0.0625,-0.0802,-0.0957,-0.1044,-0.1159,-0.0501,-0.0539,-0.0539,-0.054,-0.054,-0.054,0,0.0669,0.073,0.0833,0.0956,0.1074,0.1104,0.1279,0.1399,0.1598,0.1744,0.1836,0.1677,0.1099,0.0461,-0.0443,-0.096,-0.1183,-0.1267,-0.1434,-0.1488,-0.0922,-0.094,-0.1024,-0.1024,-0.1024,-0.1024,-0.1024,-0.1023,0.0711,0.0818,0.0869,0.1071,0.1168,0.1337,0.1447,0.1638,0.1794,0.2009,0.2089,0.2104,0.1642,-0.0018,-0.1159,-0.1458,-0.1854,-0.1944,-0.2134,-0.1779,-0.1748,-0.1719,-0.177,-0.2027,-0.2029,-0.2611,-0.2618,-0.2622]}],[{"header":{"parameterUnit":"m.s-1","parameterCategory":2,"la1":30.2991,"la2":30.254,"lo1":-89.0895,"lo2":-89.0444,"dy":0.0017,"dx":0.0017,"nx":28,"ny":28,"refTime":"2025-12-04T03:00:00:Z","depth":"2","parameterNumber":2,"parameterNumberName":"U-component_of_CURRENTS"},"data":[0,0,0,0,0,0,0,0,0,0,0,0,0,0,0,0,0,0,0,0,0,0,0,0,0,0,0,0,0,0,0,0,0,0,0,0,0,0,0,0,0,0,0,0,0,0,0,0,0,0,0,0,0,0,0,0,0,0,0.3001,0.3002,0,0.3057,0.3057,0.3057,0.307,0.307,0.307,0.3069,0.3084,0.3084,0.3085,0,0,0,0,0,0,0,0,0,0,0,0,0,0.2891,0.2893,0.3001,0.3002,0.3003,0.3057,0.3057,0.3057,0.307,0.307,0.3069,0.3069,0.3084,0.3084,0.3085,0,0,0,0,0,0,0,0,0,0,0,0,0,0.2939,0.2894,0.3001,0.3018,0.3021,0.3056,0.3057,0.3058,0.307,0.307,0.3069,0.3069,0.3083,0.3084,0.3085,0.3091,0,0,0.3087,0.3087,0,0,0,0,0,0,0,0,0.2936,0.2942,0.3015,0.3017,0.302,0.3059,0.3024,0.3068,0.307,0.3047,0.3069,0.3069,0.3074,0.3076,0.3082,0.3092,0.3092,0.3087,0.3087,0.3088,0.3088,0,0,0,0,0,0,0,0.2933,0.294,0.3019,0.3016,0.3019,0.3019,0.3025,0.3032,0.3057,0.3049,0.3051,0.3063,0.3075,0.3081,0.3082,0.3093,0.3087,0.3087,0.3088,0.3088,0.3172,0.3174,0,0,0,0,0,0,0.2934,0.2937,0.3018,0.3022,0.2981,0.3021,0.3028,0.3044,0.3058,0.3062,0.3063,0.3063,0.308,0.3081,0.3083,0.3142,0.3088,0.3088,0.3089,0.317,0.3172,0.3174,0,0,0,0,0,0,0.2932,0.2941,0.3016,0.2983,0.2993,0.3024,0.3041,0.3045,0.3065,0.307,0.3071,0.3081,0.308,0.3082,0.311,0.3141,0.3088,0.3089,0.3168,0.3171,0.3173,0.3228,0,0,0,0,0,0,0.2928,0.294,0.2954,0.2983,0.2995,0.3048,0.3042,0.3046,0.3073,0.3075,0.3085,0.3086,0.308,0.311,0.3111,0.3141,0.309,0.3166,0.3169,0.3172,0.3224,0.3232,0.3239,0,0,0,0,0,0.2924,0.2942,0.2955,0.2965,0.3013,0.305,0.3056,0.3074,0.3075,0.3089,0.3102,0.3086,0.3132,0.3112,0.3113,0.3143,0.3164,0.3168,0.3172,0.322,0.3231,0.3239,0,0,0,0,0,0,0.2897,0.2946,0.296,0.2991,0.3025,0.3053,0.3072,0.3083,0.3105,0.3109,0.3105,0.3108,0.3147,0.314,0.3117,0.318,0.3147,0.3152,0.3184,0.3193,0.3201,0.321,0.309,0,0,0,0,0,0.2901,0.2929,0.2972,0.2998,0.3018,0.3048,0.3066,0.3083,0.3106,0.3116,0.3125,0.314,0.3164,0.3173,0.3189,0.3218,0.3231,0.3241,0.3249,0.3255,0.3266,0.3314,0.3328,0.3188,0.3188,0.3187,0,0,0.2894,0.2928,0.2942,0.2995,0.3022,0.3057,0.3058,0.3096,0.3125,0.3113,0.3154,0.3168,0.3179,0.3218,0.3235,0.3215,0.3305,0.326,0.3266,0.3273,0.332,0.3334,0.3346,0.319,0.319,0.3189,0,0,0.2896,0.2932,0.2957,0.2991,0.3045,0.3069,0.3085,0.3127,0.3149,0.319,0.3196,0.3233,0.3255,0.3278,0.329,0.335,0.3347,0.3355,0.3398,0.3446,0.3457,0.3468,0.3511,0.3525,0.3356,0.3356,0.3356,0,0.2888,0.2931,0.2968,0.3005,0.3036,0.3078,0.3112,0.3145,0.319,0.3218,0.321,0.3282,0.3287,0.3348,0.3371,0.3368,0.3393,0.3358,0.3455,0.3466,0.3476,0.3517,0.3532,0.3359,0.3359,0.3358,0.3358,0,0.2911,0.295,0.297,0.3033,0.3068,0.3109,0.3162,0.3204,0.3235,0.3268,0.3338,0.3358,0.3401,0.3413,0.3409,0.3488,0.3483,0.3461,0.3429,0.3493,0.3533,0.3547,0.3363,0.3362,0.3361,0.3361,0,0,0.2875,0.2969,0.2974,0.301,0.3091,0.312,0.3186,0.3257,0.3305,0.3355,0.3419,0.3469,0.3489,0.3505,0.3515,0.3556,0.3645,0.3542,0.3543,0.358,0.3757,0.3728,0.374,0.3641,0.3644,0.3646,0.376,0,0.2883,0.2946,0.2996,0.3057,0.3097,0.3165,0.3222,0.3291,0.3349,0.3422,0.3474,0.3536,0.3522,0.3553,0.3596,0.3638,0.3684,0.3616,0.3694,0.3696,0.3658,0.3756,0.3478,0.3554,0.3774,0.3776,0.3778,0,0.2882,0.293,0.2987,0.3082,0.3107,0.315,0.3253,0.331,0.3424,0.3476,0.3553,0.3598,0.3688,0.3655,0.3767,0.3727,0.3752,0.3774,0.3778,0.3741,0.3693,0.3524,0.3571,0.3801,0.3799,0.3797,0.3796,0,0.2825,0.292,0.2965,0.2997,0.3109,0.3151,0.3213,0.3321,0.3389,0.3514,0.3584,0.3681,0.3749,0.3801,0.3859,0.3823,0.3975,0.3922,0.3921,0.3919,0.3693,0.3666,0.4001,0.4001,0.4001,0.4001,0.4,0,0.2809,0.2843,0.2943,0.2967,0.303,0.3117,0.3193,0.3278,0.341,0.3491,0.3603,0.369,0.3792,0.3887,0.3908,0.3977,0.4018,0.396,0.3959,0.3706,0.368,0.3892,0.3878,0.4005,0.4004,0.4003,0.4002,0,0.2735,0.2803,0.2856,0.2967,0.3002,0.3039,0.3176,0.3236,0.3377,0.3491,0.3543,0.3733,0.3861,0.3957,0.4061,0.4047,0.4103,0.4109,0.3813,0.3776,0.4,0.3987,0.4123,0.4123,0.4123,0.4123,0.4123,0,0.2703,0.2723,0.2824,0.2851,0.29,0.2975,0.3031,0.319,0.3264,0.3497,0.3551,0.3749,0.3855,0.4034,0.4061,0.4128,0.4149,0.3882,0.376,0.4033,0.4019,0.4006,0.3993,0.348,0.3475,0.3471,0.3467,0,0.2638,0.2672,0.2715,0.2769,0.2822,0.2879,0.2977,0.3037,0.3221,0.3343,0.3506,0.3623,0.3835,0.3805,0.3925,0.3906,0.3851,0.3801,0.4173,0.3501,0.3439,0.3421,0.3427,0.3429,0.3433,0.3436,0.3438,0.344,0.2576,0.2582,0.2635,0.2674,0.2731,0.2763,0.2769,0.2894,0.2998,0.3142,0.3335,0.3421,0.354,0.3595,0.3534,0.3496,0.3742,0.3562,0.357,0.3583,0.3498,0.344,0.3415,0.3418,0.3421,0.3424,0.3426,0,0.2482,0.2504,0.2539,0.2575,0.2578,0.2649,0.2715,0.27,0.276,0.2939,0.3062,0.2929,0.2981,0.3079,0.2996,0.3047,0.2957,0.2905,0.2746,0.279,0.2828,0.2696,0.2404,0.24,0.2396,0.2392,0,0,0.2435,0.2421,0.2436,0.2404,0.2429,0.2388,0.2387,0.2402,0.2489,0.2516,0.2561,0.2833,0.3006,0.2643,0.2649,0.25,0.2599,0.2409,0.3247,0.3104,0.3135,0.3252,0.3107,0,0,0,0,0]},{"header":{"parameterUnit":"m.s-1","parameterCategory":2,"la1":30.2991,"la2":30.254,"lo1":-89.0895,"lo2":-89.0444,"dy":0.0017,"dx":0.0017,"nx":28,"ny":28,"refTime":"2025-12-04T03:00:00:Z","depth":"2","parameterNumber":3,"parameterNumberName":"V-component_of_CURRENTS"},"data":[0,0,0,0,0,0,0,0,0,0,0,0,0,0,0,0,0,0,0,0,0,0,0,0,0,0,0,0,0,0,0,0,0,0,0,0,0,0,0,0,0,0,0,0,0,0,0,0,0,0,0,0,0,0,0,0,0,0,-0.0024,-0.0024,0,-0.011,-0.0111,-0.0112,-0.0169,-0.0169,-0.0169,-0.0169,-0.0274,-0.0276,-0.0279,0,0,0,0,0,0,0,0,0,0,0,0,0,0.0039,0.0038,-0.0024,-0.0024,-0.0025,-0.0109,-0.0111,-0.0112,-0.0169,-0.0169,-0.0169,-0.017,-0.0273,-0.0276,-0.0279,0,0,0,0,0,0,0,0,0,0,0,0,0,-0.0013,0.0038,-0.0023,-0.0063,-0.0067,-0.0109,-0.0111,-0.0112,-0.0169,-0.0169,-0.0169,-0.017,-0.0272,-0.0276,-0.0279,-0.0296,0,0,-0.0291,-0.0293,0,0,0,0,0,0,0,0,-0.001,-0.0015,-0.0056,-0.006,-0.0065,-0.0127,-0.0127,-0.0174,-0.0169,-0.0132,-0.0169,-0.017,-0.0225,-0.0233,-0.025,-0.03,-0.0305,-0.0291,-0.0294,-0.0295,-0.0296,0,0,0,0,0,0,0,-0.0006,-0.0012,-0.0059,-0.0057,-0.0062,-0.0094,-0.0101,-0.0136,-0.0177,-0.0135,-0.0139,-0.0146,-0.0228,-0.0246,-0.0253,-0.0306,-0.0291,-0.0295,-0.0297,-0.0298,-0.0373,-0.0373,0,0,0,0,0,0,0.0011,-0.0008,-0.0056,-0.0062,-0.0036,-0.0094,-0.0103,-0.0108,-0.0176,-0.0186,-0.0145,-0.0148,-0.024,-0.0249,-0.0257,-0.0264,-0.0295,-0.0299,-0.0301,-0.0374,-0.0373,-0.0373,0,0,0,0,0,0,0.0012,0.0007,-0.0053,-0.0036,-0.0046,-0.0094,-0.0101,-0.011,-0.0127,-0.0184,-0.0195,-0.0153,-0.024,-0.0252,-0.0281,-0.0269,-0.0301,-0.0304,-0.0374,-0.0373,-0.0373,-0.0288,0,0,0,0,0,0,0.0015,0.0009,0.001,-0.0035,-0.0046,-0.0067,-0.01,-0.0111,-0.013,-0.0134,-0.0193,-0.0204,-0.0241,-0.0275,-0.0285,-0.0275,-0.0307,-0.0374,-0.0374,-0.0373,-0.0291,-0.0285,-0.0279,0,0,0,0,0,0.0017,0.0027,0.0011,0.0005,-0.0042,-0.0066,-0.0075,-0.0113,-0.013,-0.0131,-0.0171,-0.0202,-0.0278,-0.0277,-0.0289,-0.028,-0.0375,-0.0374,-0.0373,-0.0294,-0.0286,-0.0279,0,0,0,0,0,0,0.0057,0.0021,0.0002,0.0001,-0.0027,-0.0075,-0.0079,-0.0106,-0.014,-0.0143,-0.0199,-0.0212,-0.0234,-0.0269,-0.0267,-0.0301,-0.0331,-0.0333,-0.0267,-0.026,-0.0254,-0.0232,-0.031,0,0,0,0,0,0.0067,0.0064,0.0024,0.0023,0.0013,-0.0032,-0.0047,-0.0072,-0.0107,-0.0123,-0.0164,-0.0207,-0.0241,-0.0259,-0.0296,-0.0313,-0.035,-0.0315,-0.0309,-0.0304,-0.0294,-0.0341,-0.0338,-0.0371,-0.0371,-0.0371,0,0,0.0081,0.0062,0.0059,0.0031,0.0006,0.0005,-0.0042,-0.0056,-0.0057,-0.0128,-0.0141,-0.0188,-0.0241,-0.026,-0.0273,-0.0287,-0.0314,-0.0303,-0.0298,-0.0291,-0.034,-0.0337,-0.0334,-0.037,-0.037,-0.037,0,0,0.0118,0.0094,0.0106,0.009,0.0063,0.0036,0.0037,-0.0007,-0.0026,-0.0048,-0.0096,-0.0132,-0.0187,-0.0219,-0.0244,-0.0227,-0.0281,-0.0241,-0.0192,-0.0237,-0.0235,-0.0233,-0.027,-0.0273,-0.0237,-0.0237,-0.0237,0,0.0136,0.0146,0.0106,0.0117,0.0115,0.0057,0.0076,0.0048,0.0,-0.0009,-0.0039,-0.0118,-0.0165,-0.0186,-0.0183,-0.0212,-0.0246,-0.0212,-0.0228,-0.0227,-0.0227,-0.0266,-0.0269,-0.0233,-0.0233,-0.0234,-0.0234,0,0.0182,0.019,0.0199,0.0194,0.0186,0.0192,0.0155,0.0142,0.0108,0.0074,0.004,-0.0031,-0.0075,-0.01,-0.0139,-0.0156,-0.0183,-0.0214,-0.0242,-0.0218,-0.0261,-0.0266,-0.0227,-0.0228,-0.0229,-0.023,0,0,0.0227,0.023,0.0234,0.0254,0.023,0.0234,0.0235,0.022,0.0228,0.0162,0.0162,0.0086,0.0038,0.0008,-0.005,-0.0095,-0.0127,-0.0147,-0.0152,-0.0175,-0.0223,-0.0241,-0.0249,-0.0163,-0.0163,-0.0163,-0.0251,0,0.0276,0.0322,0.0306,0.0353,0.0377,0.0338,0.0348,0.0326,0.029,0.0272,0.0188,0.0161,0.0082,0.0064,0.0006,-0.0091,-0.0138,-0.01,-0.025,-0.0254,-0.0266,-0.0255,-0.0226,-0.0301,-0.0257,-0.0258,-0.0258,0,0.0331,0.0357,0.041,0.0445,0.0453,0.0466,0.048,0.0479,0.0433,0.0403,0.0349,0.0284,0.0213,0.0141,-0.0013,0.0014,-0.0093,-0.0177,-0.0183,-0.0232,-0.0282,-0.0321,-0.0313,-0.0268,-0.0267,-0.0267,-0.0266,0,0.0394,0.0435,0.0485,0.0494,0.0514,0.0533,0.0539,0.0517,0.0539,0.0484,0.0491,0.0381,0.0339,0.019,0.0017,0.0001,-0.0156,-0.0201,-0.0319,-0.0322,-0.0342,-0.0345,-0.0309,-0.0309,-0.0309,-0.0309,-0.0308,0,0.0458,0.0501,0.0518,0.0547,0.0615,0.06,0.0658,0.0642,0.0642,0.0679,0.0562,0.0569,0.0349,0.0236,0.0057,-0.0139,-0.0128,-0.0305,-0.0344,-0.0312,-0.0311,-0.032,-0.0321,-0.0312,-0.0311,-0.0311,-0.031,0,0.0519,0.0527,0.0592,0.0627,0.0646,0.0691,0.0751,0.0793,0.0771,0.0817,0.0811,0.0713,0.0562,0.0341,0.0102,-0.007,-0.0265,-0.034,-0.0282,-0.0313,-0.0413,-0.0408,-0.048,-0.0482,-0.0483,-0.0484,-0.0485,0,0.0553,0.059,0.0655,0.0702,0.072,0.0785,0.0837,0.0851,0.0907,0.0914,0.0952,0.0833,0.0769,0.0414,0.0089,-0.0219,-0.0263,-0.0402,-0.0433,-0.0399,-0.043,-0.0423,-0.0417,-0.0429,-0.0429,-0.043,-0.043,0,0.062,0.0636,0.0689,0.0785,0.0851,0.0938,0.1015,0.1087,0.1109,0.115,0.1185,0.114,0.0809,0.051,0.0081,-0.0138,-0.0353,-0.0417,-0.0399,-0.0384,-0.0356,-0.0385,-0.0379,-0.0432,-0.0432,-0.0431,-0.0431,-0.0431,0.0668,0.0716,0.0782,0.0878,0.0961,0.1073,0.116,0.1252,0.1357,0.1429,0.1372,0.1312,0.0961,0.043,0.0045,-0.0368,-0.0354,-0.0497,-0.0494,-0.0491,-0.0464,-0.0439,-0.0525,-0.0525,-0.0525,-0.0525,-0.0526,0,0.0729,0.0783,0.0874,0.0986,0.1088,0.1122,0.1271,0.136,0.1494,0.1555,0.1581,0.1263,0.0918,0.0508,-0.0092,-0.0451,-0.049,-0.0572,-0.0529,-0.0524,-0.052,-0.0493,-0.0563,-0.0564,-0.0565,-0.0566,0,0,0.0761,0.0853,0.0898,0.1069,0.1155,0.13,0.139,0.1522,0.1606,0.167,0.1645,0.1569,0.1068,0.0638,0.0141,-0.0205,-0.0288,-0.0288,-0.022,-0.0106,-0.0098,-0.0441,-0.039,0,0,0,0,0]}],[{"header":{"parameterUnit":"m.s-1","parameterCategory":2,"la1":30.2991,"la2":30.254,"lo1":-89.0895,"lo2":-89.0444,"dy":0.0017,"dx":0.0017,"nx":28,"ny":28,"refTime":"2025-12-04T03:00:00:Z","depth":"4","parameterNumber":2,"parameterNumberName":"U-component_of_CURRENTS"},"data":[0,0,0,0,0,0,0,0,0,0,0,0,0,0,0,0,0,0,0,0,0,0,0,0,0,0,0,0,0,0,0,0,0,0,0,0,0,0,0,0,0,0,0,0,0,0,0,0,0,0,0,0,0,0,0,0,0,0,0.1966,0.1967,0,0.2055,0.2056,0.2057,0.2127,0.2128,0.2129,0.213,0.2218,0.2219,0.2221,0,0,0,0,0,0,0,0,0,0,0,0,0,0.1833,0.1835,0.1966,0.1968,0.1969,0.2055,0.2056,0.2057,0.2127,0.2128,0.2129,0.213,0.2217,0.2219,0.2221,0,0,0,0,0,0,0,0,0,0,0,0,0,0.1901,0.1835,0.1966,0.2016,0.2022,0.2055,0.2056,0.2057,0.2127,0.2128,0.213,0.2131,0.2217,0.2219,0.2221,0.2207,0,0,0.2228,0.2229,0,0,0,0,0,0,0,0,0.1897,0.1905,0.2007,0.2013,0.2019,0.2084,0.2042,0.2108,0.2126,0.2084,0.213,0.2132,0.2174,0.2179,0.2189,0.2211,0.2215,0.2228,0.2229,0.223,0.2231,0,0,0,0,0,0,0,0.1892,0.1902,0.1999,0.2009,0.2016,0.2026,0.2037,0.2054,0.2118,0.2088,0.2094,0.2107,0.2177,0.2187,0.2192,0.2216,0.2228,0.223,0.2231,0.2232,0.236,0.2362,0,0,0,0,0,0,0.1886,0.1897,0.1996,0.2002,0.1963,0.2028,0.204,0.206,0.2118,0.2129,0.2106,0.211,0.2183,0.2189,0.2195,0.2297,0.223,0.2232,0.2234,0.2358,0.236,0.2362,0,0,0,0,0,0,0.1883,0.1894,0.1993,0.1953,0.1967,0.2029,0.205,0.2061,0.2116,0.2132,0.2143,0.2156,0.2184,0.2192,0.2253,0.2296,0.2233,0.2235,0.2355,0.2358,0.2361,0.2426,0,0,0,0,0,0,0.1879,0.1893,0.1924,0.1953,0.1969,0.204,0.2049,0.2061,0.212,0.2128,0.2177,0.2184,0.2186,0.225,0.2255,0.2298,0.2237,0.2353,0.2357,0.236,0.2421,0.2431,0.2439,0,0,0,0,0,0.1874,0.1903,0.1925,0.1938,0.2004,0.2042,0.2051,0.2097,0.2122,0.2151,0.219,0.2185,0.2278,0.2253,0.2259,0.2304,0.2351,0.2355,0.236,0.2417,0.2429,0.2439,0,0,0,0,0,0,0.1865,0.1914,0.1939,0.1985,0.2025,0.2055,0.2094,0.212,0.2173,0.2196,0.2208,0.2218,0.2288,0.2287,0.2259,0.2353,0.2315,0.2321,0.2356,0.2368,0.2376,0.2378,0.2239,0,0,0,0,0,0.1876,0.1915,0.1956,0.1999,0.2023,0.2066,0.2096,0.2128,0.2168,0.2196,0.223,0.2269,0.2303,0.233,0.2357,0.2405,0.2411,0.2439,0.2448,0.2456,0.2463,0.2507,0.2521,0.2377,0.2377,0.2377,0,0,0.1885,0.1919,0.1943,0.2001,0.2039,0.2077,0.2089,0.2148,0.219,0.2194,0.2276,0.2304,0.2324,0.2383,0.2414,0.2393,0.2503,0.2462,0.2468,0.2471,0.2514,0.2527,0.254,0.2381,0.238,0.238,0,0,0.1903,0.1955,0.1989,0.2025,0.2091,0.2116,0.2141,0.2198,0.2241,0.2307,0.2327,0.2384,0.2436,0.2461,0.2476,0.255,0.255,0.2568,0.2615,0.2659,0.2671,0.2681,0.2717,0.273,0.2571,0.2571,0.2571,0,0.1917,0.1963,0.2005,0.2044,0.2082,0.2136,0.2178,0.2222,0.2295,0.2335,0.2347,0.245,0.247,0.2535,0.2567,0.257,0.2595,0.257,0.267,0.268,0.269,0.2723,0.2737,0.2575,0.2575,0.2574,0.2574,0,0.1945,0.1999,0.2025,0.2092,0.2136,0.2186,0.2244,0.2306,0.2364,0.2405,0.2502,0.2535,0.2596,0.2615,0.2616,0.27,0.2697,0.2675,0.2639,0.2708,0.2739,0.2752,0.258,0.2579,0.2578,0.2577,0,0,0.1927,0.2026,0.2039,0.2081,0.217,0.2203,0.2286,0.2365,0.2428,0.2506,0.2586,0.2653,0.2688,0.2709,0.2726,0.2766,0.2857,0.276,0.2761,0.2789,0.2964,0.2799,0.2796,0.2861,0.2863,0.2865,0.2961,0,0.1942,0.2014,0.2065,0.2144,0.2185,0.2263,0.233,0.2413,0.2488,0.2579,0.2641,0.2723,0.2719,0.2766,0.2809,0.2852,0.2894,0.2834,0.2898,0.29,0.2739,0.2806,0.2873,0.2971,0.2974,0.2976,0.2977,0,0.1942,0.1996,0.2071,0.2176,0.2204,0.2264,0.2385,0.2451,0.2578,0.2644,0.2736,0.2791,0.2889,0.2864,0.2972,0.2941,0.2965,0.2982,0.2985,0.2814,0.2757,0.2886,0.3,0.2998,0.2997,0.2995,0.2994,0,0.1888,0.1997,0.206,0.2096,0.222,0.2283,0.2357,0.2479,0.2553,0.2697,0.2773,0.2878,0.2959,0.3007,0.3063,0.3035,0.3165,0.312,0.2991,0.298,0.307,0.3058,0.3188,0.3188,0.3187,0.3187,0.3187,0,0.186,0.1916,0.2049,0.2082,0.217,0.2267,0.2369,0.2461,0.2603,0.2685,0.281,0.2883,0.3005,0.309,0.3107,0.3095,0.3205,0.3011,0.2995,0.3097,0.3086,0.308,0.3066,0.3191,0.319,0.3189,0.3189,0,0.1781,0.1871,0.195,0.2094,0.2145,0.2208,0.2372,0.2438,0.2591,0.2706,0.2765,0.2935,0.3034,0.3128,0.3219,0.3139,0.3146,0.3113,0.3241,0.3229,0.292,0.2909,0.2962,0.2957,0.2953,0.2949,0.2946,0,0.1742,0.1778,0.1937,0.1986,0.2059,0.217,0.2243,0.2412,0.248,0.2701,0.2741,0.2915,0.3001,0.3001,0.3105,0.3135,0.3097,0.308,0.2968,0.2919,0.2899,0.2895,0.2889,0.2939,0.2938,0.2937,0.2936,0,0.1665,0.174,0.1805,0.1906,0.1995,0.2073,0.2192,0.2232,0.2415,0.2584,0.2652,0.2713,0.2824,0.2885,0.2947,0.2953,0.3074,0.3034,0.3041,0.2936,0.2892,0.2876,0.2876,0.2921,0.2924,0.2925,0.2926,0,0.1609,0.1632,0.173,0.1803,0.1906,0.1944,0.202,0.2102,0.2194,0.2433,0.2447,0.2625,0.2785,0.2794,0.2843,0.2851,0.2795,0.2686,0.271,0.2728,0.2607,0.2514,0.2423,0,0,0,0,0,0.1539,0.1552,0.1615,0.1683,0.1779,0.1836,0.1973,0.2052,0.2231,0.2219,0.2327,0.2412,0.2488,0.2583,0.2545,0.2749,0.2813,0.2693,0.2701,0.284,0.2857,0.2737,0,0,0,0,0,0,0.149,0.1546,0.1568,0.1569,0.1591,0.1674,0.1751,0.1871,0.1873,0.2064,0.2119,0.2268,0.2382,0.2484,0.2497,0.2529,0.2485,0.2812,0.2806,0.283,0.2846,0.2859,0.2742,0,0,0,0,0]},{"header":{"parameterUnit":"m.s-1","parameterCategory":2,"la1":30.2991,"la2":30.254,"lo1":-89.0895,"lo2":-89.0444,"dy":0.0017,"dx":0.0017,"nx":28,"ny":28,"refTime":"2025-12-04T03:00:00:Z","depth":"4","parameterNumber":3,"parameterNumberName":"V-component_of_CURRENTS"},"data":[0,0,0,0,0,0,0,0,0,0,0,0,0,0,0,0,0,0,0,0,0,0,0,0,0,0,0,0,0,0,0,0,0,0,0,0,0,0,0,0,0,0,0,0,0,0,0,0,0,0,0,0,0,0,0,0,0,0,0.0053,0.0052,0,-0.0009,-0.001,-0.0011,-0.0052,-0.0053,-0.0053,-0.0053,-0.0131,-0.0133,-0.0134,0,0,0,0,0,0,0,0,0,0,0,0,0,0.0099,0.0099,0.0053,0.0052,0.0052,-0.0009,-0.001,-0.0011,-0.0052,-0.0053,-0.0053,-0.0053,-0.013,-0.0132,-0.0135,0,0,0,0,0,0,0,0,0,0,0,0,0,0.0061,0.0099,0.0053,0.0025,0.0021,-0.0009,-0.001,-0.0011,-0.0052,-0.0053,-0.0053,-0.0053,-0.0129,-0.0132,-0.0135,-0.0147,0,0,-0.0144,-0.0145,0,0,0,0,0,0,0,0,0.0064,0.006,0.0029,0.0026,0.0023,-0.0022,-0.0022,-0.0057,-0.0052,-0.0026,-0.0053,-0.0053,-0.0095,-0.0101,-0.0113,-0.0151,-0.0154,-0.0144,-0.0146,-0.0147,-0.0148,0,0,0,0,0,0,0,0.0066,0.0062,0.0027,0.0029,0.0025,0.0002,-0.0003,-0.0029,-0.0059,-0.0028,-0.0031,-0.0036,-0.0097,-0.011,-0.0115,-0.0155,-0.0144,-0.0146,-0.0148,-0.0149,-0.0205,-0.0205,0,0,0,0,0,0,0.0078,0.0064,0.0029,0.0025,0.0044,0.0002,-0.0004,-0.0009,-0.0059,-0.0066,-0.0036,-0.0038,-0.0105,-0.0112,-0.0118,-0.0122,-0.0147,-0.015,-0.0151,-0.0206,-0.0205,-0.0205,0,0,0,0,0,0,0.008,0.0076,0.0032,0.0044,0.0037,0.0002,-0.0003,-0.001,-0.0022,-0.0064,-0.0072,-0.0041,-0.0106,-0.0114,-0.0135,-0.0126,-0.0151,-0.0153,-0.0206,-0.0205,-0.0205,-0.0138,0,0,0,0,0,0,0.0081,0.0077,0.0078,0.0045,0.0037,0.0022,-0.0003,-0.0011,-0.0024,-0.0027,-0.0071,-0.0079,-0.0107,-0.0131,-0.0138,-0.013,-0.0156,-0.0206,-0.0206,-0.0205,-0.014,-0.0135,-0.0131,0,0,0,0,0,0.0083,0.009,0.0079,0.0074,0.004,0.0022,0.0016,-0.0011,-0.0024,-0.0025,-0.0053,-0.0077,-0.0133,-0.0132,-0.0141,-0.0134,-0.0206,-0.0206,-0.0205,-0.0142,-0.0136,-0.0131,0,0,0,0,0,0,0.0111,0.0085,0.0073,0.0071,0.0051,0.0016,0.0013,-0.0007,-0.0031,-0.0033,-0.0074,-0.0084,-0.0099,-0.0127,-0.0125,-0.015,-0.0174,-0.0175,-0.0123,-0.0118,-0.0113,-0.0096,-0.0158,0,0,0,0,0,0.0118,0.0117,0.0088,0.0087,0.008,0.0047,0.0037,0.0019,-0.0007,-0.0018,-0.0049,-0.008,-0.0105,-0.0118,-0.0145,-0.0158,-0.0192,-0.016,-0.0155,-0.0151,-0.0144,-0.0188,-0.0187,-0.0203,-0.0203,-0.0203,0,0,0.0128,0.0115,0.0114,0.0093,0.0076,0.0076,0.004,0.0031,0.0031,-0.0022,-0.003,-0.0065,-0.0105,-0.0118,-0.0128,-0.0139,-0.0165,-0.015,-0.0146,-0.0141,-0.0187,-0.0186,-0.0184,-0.0203,-0.0203,-0.0203,0,0,0.0154,0.0138,0.0147,0.0137,0.0118,0.0099,0.01,0.0068,0.0055,0.004,0.0004,-0.0023,-0.0062,-0.0087,-0.0105,-0.0091,-0.0139,-0.0102,-0.0063,-0.0106,-0.0105,-0.0105,-0.0146,-0.0149,-0.0099,-0.0099,-0.0098,0,0.0168,0.0176,0.0147,0.0156,0.0157,0.0115,0.013,0.011,0.0076,0.0069,0.0048,-0.0011,-0.0046,-0.0061,-0.0057,-0.0079,-0.0113,-0.0079,-0.0099,-0.01,-0.01,-0.0142,-0.0147,-0.0095,-0.0096,-0.0096,-0.0096,0,0.02,0.0208,0.0215,0.0214,0.0211,0.0216,0.0191,0.0182,0.0159,0.0133,0.0109,0.0056,0.0023,0.0005,-0.0022,-0.0039,-0.0065,-0.0088,-0.011,-0.0094,-0.014,-0.0146,-0.0091,-0.0092,-0.0093,-0.0094,0,0,0.0226,0.0236,0.0239,0.0257,0.0244,0.0249,0.0252,0.0243,0.0249,0.0201,0.02,0.0147,0.011,0.0087,0.0044,0.0005,-0.0031,-0.0037,-0.0041,-0.0071,-0.0127,-0.0132,-0.014,-0.0059,-0.006,-0.0061,-0.0157,0,0.0261,0.0298,0.0291,0.0331,0.035,0.0327,0.0337,0.0323,0.0297,0.0283,0.022,0.02,0.0143,0.013,0.0081,-0.0001,-0.0044,-0.0002,-0.0144,-0.0148,-0.015,-0.0147,-0.0063,-0.0162,-0.0163,-0.0165,-0.0165,0,0.0296,0.0319,0.0364,0.04,0.0406,0.0422,0.0437,0.044,0.0406,0.0383,0.0342,0.0291,0.0232,0.0181,0.0045,0.0073,-0.0018,-0.0088,-0.0094,-0.0126,-0.0165,-0.0184,-0.0177,-0.0176,-0.0176,-0.0175,-0.0174,0,0.0334,0.0374,0.0417,0.0427,0.0452,0.0473,0.0483,0.0469,0.0488,0.0447,0.0449,0.0359,0.0323,0.0198,0.0053,0.0047,-0.0103,-0.0132,-0.0224,-0.0226,-0.0222,-0.0222,-0.0228,-0.0228,-0.0228,-0.0228,-0.0227,0,0.0373,0.0411,0.0441,0.0465,0.0525,0.0522,0.0572,0.0565,0.0567,0.0592,0.0505,0.0498,0.0325,0.0221,0.0076,-0.009,-0.009,-0.0215,-0.025,-0.0192,-0.0187,-0.0227,-0.0226,-0.0231,-0.0231,-0.023,-0.0229,0,0.0405,0.0422,0.0479,0.0522,0.0545,0.0585,0.0646,0.0678,0.0667,0.0697,0.0693,0.0602,0.0461,0.0283,0.0077,-0.0047,-0.0212,-0.0272,-0.019,-0.0219,-0.0314,-0.0308,-0.0383,-0.0384,-0.0385,-0.0386,-0.0386,0,0.0422,0.0453,0.0525,0.0567,0.0592,0.0653,0.07,0.0722,0.0761,0.076,0.0779,0.0669,0.058,0.0296,0.009,-0.0186,-0.023,-0.0321,-0.0325,-0.0303,-0.0329,-0.0322,-0.0315,-0.0388,-0.0388,-0.0388,-0.0388,0,0.0456,0.048,0.0528,0.0615,0.0679,0.0755,0.0822,0.0863,0.0886,0.0886,0.0856,0.071,0.0548,0.0311,0.0096,-0.0105,-0.0265,-0.033,-0.033,-0.0335,-0.0309,-0.0333,-0.0325,-0.0391,-0.0391,-0.0391,-0.039,0,0.0481,0.0518,0.0581,0.0661,0.0746,0.0826,0.0861,0.0908,0.0946,0.0945,0.093,0.0752,0.0648,0.0352,0.0154,-0.0044,-0.0102,-0.0176,-0.0185,-0.0184,-0.0104,-0.0041,-0.0066,0,0,0,0,0,0.0502,0.0546,0.0621,0.0709,0.0795,0.0848,0.0932,0.0958,0.0987,0.0981,0.0962,0.0812,0.0522,0.0395,0.0198,0.0116,-0.0152,-0.0125,-0.0244,-0.0407,-0.0404,-0.0344,0,0,0,0,0,0,0.0514,0.0584,0.0621,0.0734,0.0802,0.0901,0.0958,0.0981,0.0976,0.0974,0.0829,0.0755,0.0476,0.0642,0.0195,0.0133,0.0027,-0.0259,-0.0264,-0.0409,-0.0406,-0.0403,-0.0341,0,0,0,0,0]}]]